ImprimablePdf
Antwerp, 25/04/2010, BEL - DVV Antwerp Marathon & 10 Miles
Liste des rapports > 10 Miles - Classement + Video
Recherche: Page: [1] 2 3 4 5 6 7
1291 Entrées
 
Les réclamations ne sont plus acceptées, les résultats sont considérés comme définitifs.
RangNrNomAgeIOCTempsTkmMoy.ScrLocalité
1.966BAETENS Luc48BEL1:00:253:46 15.9951LINT
2.797VAN HECK Danny45BEL1:01:153:49 15.7773BLANDEN
3.18466MATERNE Stef46BEL1:01:303:50 15.7082ROTSELAAR
4.414HUYSMANS Koen46BEL1:01:523:51 15.6192GEEL
5.592VERBANDT Hugo49BEL1:02:273:53 15.47112MERKSEM (ANTWERPEN)
6.18180JANSSENS Patrick46BEL1:02:363:54 15.43116ANTWERPEN 6
7.626VAN RIEL Paul48BEL1:02:503:55 15.37120WUUSTWEZEL
8.18183WUYTS Wilfried47BEL1:03:053:56 15.31131GEEL
9.18132VAN GAEVER Egied49BEL1:03:293:57 15.21141VOSSELARE
10.963DE RYCKE Dirk48BEL1:03:343:57 15.20144MORTSEL
11.14156DERYNCK Geert47BEL1:03:563:59 15.11157VARSENARE
12.12806LAUWERS Marc46BEL1:04:053:59 15.07164LONDERZEEL
13.9991MESTDAGH Geert48BEL1:04:154:00 15.03170RUMST
14.884LAURYSSENS Rudi47BEL1:04:174:00 15.02172DEURNE (ANTWERPEN)
15.18122VAN NIJLEN Bart48BEL1:04:204:00 15.01176KASTERLEE
16.7651HUYSMANS Stephan46BEL1:04:274:01 14.98181X
17.4180MARSON Gary49BEL1:04:334:01 14.96185TERVUREN
18.420VAN DE WALLE Danny49BEL1:05:114:03 14.82209EVERGEM
19.614VAN STEEN Johan45BEL1:05:144:04 14.81212ZOERSEL
20.480VAN BELLE Patrick49BEL1:05:174:04 14.80215PUTTE
21.767VAN DER BURGT Harry45BEL1:05:204:04 14.78217LAARNE
22.878DE CUYPER Ivan48BEL1:05:374:05 14.72229PUTTE
23.11085HOSKENS Rudy48BEL1:05:584:06 14.64244SINT-STEVENS-WOLUWE
24.961DE MAYER Leo48BEL1:06:094:07 14.60261BOOM
25.166VAN VLEYMEN Marc45BEL1:06:124:07 14.59266ANTWERPEN 1
26.7956VERSCHUEREN Marc46BEL1:06:124:07 14.59269LOKEREN
27.110VAN OOSTERWIJCK Karl46BEL1:06:144:07 14.58270RUMST
28.574PAUWELS Percy47BEL1:06:264:08 14.54277SCHOTEN
29.18174VERMEYLEN Dirk47BEL1:06:494:10 14.46293MERKSEM (ANTWERPEN)
30.9972VAN HOOF Eddy49BEL1:06:504:10 14.45294BEGIJNENDIJK
31.780AUDENAERT Didier47BEL1:07:064:11 14.39310SINT-GILLIS-WAAS
32.12807MUYSOMS Marc45BEL1:07:074:11 14.39312TISSELT
33.683VANDERSCHOOT Bart47BEL1:07:094:11 14.38314ANTWERPEN 1
34.207YSENBAARDT Jos48BEL1:07:174:11 14.36325BONHEIDEN
35.131NOENS Martin45BEL1:07:194:11 14.35327KEMZEKE
36.18146MATTHIJSSENS Marc48BEL1:07:244:12 14.33332BRASSCHAAT
37.4864ADRIAENSEN Marc47BEL1:07:324:12 14.30345STABROEK
38.16562DE BELS Eddy49BEL1:07:374:13 14.28352WAREGEM
39.75GEERTS Pascal45BEL1:08:144:15 14.16398DEURNE
40.65BRION Marc46BEL1:08:284:16 14.11409KONTICH
41.9565VAN DER HEIJDEN Alain46BEL1:08:394:16 14.07424KIELDRECHT
42.16975LUYTEN Rony47BEL1:08:404:16 14.07425
43.922VANBOSSEL Christof48BEL1:08:474:17 14.04431BAZEL
44.2453TORFS Chris45BEL1:08:474:17 14.04432ITEGEM
45.14319VERHELST Michel46BEL1:09:014:18 14.00446KONTICH
46.8777JACOBS Dirk48BEL1:09:074:18 13.97457PUTTE
47.186MAGIS Dirk48BEL1:09:104:18 13.96464KONTICH
48.5381MAES Karl49BEL1:09:154:19 13.95472BRASSCHAAT
49.260DE GEIJTER Filip49BEL1:09:164:19 13.94474OOSTAKKER
50.1080ZAJAC Ton46NLD1:09:244:19 13.92482LEIDEN
51.370DE GROOF Frank47BEL1:09:304:20 13.90489ANTWERPEN
52.5755GEYSKENS Frank45BEL1:09:344:20 13.88492DEURNE (ANTWERPEN)
53.16479WILMSEN Peter48BEL1:09:374:20 13.87496
54.282THIELENS Dag45BEL1:09:374:20 13.87497ANTWERPEN 1
55.145NUYENS Thierry48BEL1:09:464:21 13.85509SAMBREVILLE
56.11464CLAES Dirk47BEL1:09:474:21 13.84512MUIZEN (MECHELEN)
57.877FIGOUREUX Eddy48BEL1:09:494:21 13.83519MERKSEM (ANTWERPEN)
58.12803LAMBERTS Peter45BEL1:09:544:21 13.82524KAPELLE-OP-DEN-BOS
59.106MOLENBERGHS Geert45BEL1:10:124:22 13.76554KESSEL-LO
60.917DE PAEP Gino45BEL1:10:174:22 13.74559BELSELE
61.19586DE MUNCK Danny47BEL1:10:224:23 13.73567SINT-PAUWELS
62.737EVERAERT Robert45BEL1:10:244:23 13.72570DUFFEL
63.16273VANLOFFELT Peter47BEL1:10:254:23 13.71574BILZEN
64.828VAN DEN BOSSCHE Bart47BEL1:10:284:23 13.70579WILRIJK (ANTWERPEN)
65.7393DE BATSELIER Dirk48BEL1:10:324:23 13.69583LANDEN
66.19351ROBBE Yann45BEL1:10:354:24 13.68584DILBEEK
67.9036BRESSINCK Walter49BEL1:10:404:24 13.67595BAZEL
68.721BORREMANS Michael45BEL1:10:424:24 13.66599LOVENDEGEM
69.761HOEBEKE Emmanuel47BEL1:10:504:25 13.63612WILRIJK
70.6083DE STROOPER Marc48BEL1:10:584:25 13.61628ANTWERPEN 2
71.7378ROGGE Peter45BEL1:10:594:25 13.60631BRAKEL
72.18365DIERCKX Emiel48BEL1:11:014:25 13.60635NIJLEN
73.679LAMMENS Christophe46BEL1:11:064:26 13.58639GRIMBERGEN
74.12629RYMEN Jeff46BEL1:11:104:26 13.57646LIER
75.13644JOOST Ciers48BEL1:11:114:26 13.57648HARELBEKE - HULSTE
76.4195VERWULGEN Dirk49BEL1:11:124:26 13.57653STEKENE
77.771BOUTSEN Rik46BEL1:11:204:26 13.54665HOOGSTRATEN
78.964BUEDS Willem47BEL1:11:274:27 13.52673PUTTE
79.14373DE DONCKER Bert46BEL1:11:304:27 13.51682PAMEL
80.624BAELE Walter46BEL1:11:474:28 13.46713HOEILAART
81.11375SERVAES Geert46BEL1:11:484:28 13.45716PUURS
82.634DE BREE Frank46BEL1:11:484:28 13.45718SIJSELE
83.14563CORTINOVIS Walter49BEL1:11:524:28 13.44724GENK
84.200BURM Jo45BEL1:12:014:29 13.41740WIJNEGEM
85.109VAN RAEMDONCK Henri46NLD1:12:284:31 13.33782PUTTE
86.9676VAN DAMME Geert46BEL1:12:304:31 13.32787WAASMUNSTER
87.473BOEHME Christian46BEL1:12:314:31 13.32789KNOKKE
88.785VAN MEIRVENNE Tony48BEL1:12:354:31 13.31795ANTWERPEN 2
89.10189BASTIAENS Guy48BEL1:12:364:31 13.30797POEDERLEE
90.487MAES Wim45BEL1:12:374:31 13.30798SINT-NIKLAAS
91.4232DELBAEN Patrick46BEL1:12:394:31 13.29807DUFFEL
92.18393MARIN Mario46BEL1:12:434:32 13.28818SINT-GILLIS-WAAS
93.3251BUELENS Guido49BEL1:12:494:32 13.26836LIER
94.3655CANFYN Bert46BEL1:12:544:32 13.25847BAZEL
95.6481DE SAEGER Daniel49BEL1:13:044:33 13.22865RUISBROEK (ANTW.)
96.4425JACOBS Frank47BEL1:13:054:33 13.22867ZELE
97.7119JONGENELEN Danny46BEL1:13:094:33 13.20879STABROEK
98.6402CALUWAERTS Dirk46BEL1:13:124:33 13.20888DEERLIJK
99.320LEROY Luc46BEL1:13:194:34 13.17908BERCHEM
100.3296GONZALEZ Juan45BEL1:13:424:35 13.10964ANTWERPEN
101.8592DE BOECK Marc46BEL1:13:484:36 13.09979KONTICH
102.18719BOGEMANS Marc49BEL1:13:494:36 13.08980NIJLEN
103.589GEERTS Dirk46BEL1:13:524:36 13.07989ZOERSEL
104.18368DELEN Ronny48BEL1:13:584:36 13.061001HERENTHOUT
105.13560DEFIEUW Paul47BEL1:13:594:36 13.061005DEURNE
106.645VAN WOUWE Guy49BEL1:13:594:36 13.051008EDEGEM
107.685ADAMS Mark48BEL1:14:014:36 13.051012DUISBURG, TERVUREN
108.3028COPPENS Marnic48BEL1:14:024:36 13.051017OUDENAARDE
109.960PELGRIMS Filip45BEL1:14:084:37 13.031038BERLAAR
110.1509VLAYEN Frank45BEL1:14:144:37 13.011057MUIZEN
111.18599MARTENS Marcel49BEL1:14:154:37 13.011059BELSELE
112.11689MONDELAERS Guido48BEL1:14:174:37 13.001062BALEN
113.8856CRABBE Hans48BEL1:14:184:37 13.001064BAAL
114.4127BONTE Evert45BEL1:14:254:38 12.981083KONTICH
115.14195MAAS Johan45BEL1:14:274:38 12.971090REET
116.3947DEWILDE Patrick45BEL1:14:284:38 12.971093GENT-AFSNEE
117.18376STANDAERT Hendrik46BEL1:14:294:38 12.971094BELSELE
118.12759DE COSTER Guy48BEL1:14:324:38 12.961103VELTEM-BEISEM
119.18381VERCAUTEREN Kris47BEL1:14:344:38 12.951106BEVEREN-WAAS
120.9275BALETTE Bart45BEL1:14:364:39 12.951113LOMMEL
121.10686VAN HOVE Jo48BEL1:14:424:39 12.931132ANTWERPEN
122.11013CLAUS Dirk45BEL1:14:494:39 12.911145WETTEREN
123.5529SMITS Jef49BEL1:14:534:40 12.901157SCHILDE
124.9361CHRISTIAENS Gery45BEL1:14:554:40 12.891165HAMME (O.-VL.)
125.15146VAN KERSCHAVER Daniel47BEL1:14:574:40 12.891172
126.13895BEQUET Marc47BEL1:14:594:40 12.881177LIER
127.4366MEULEMEESTER Jan45BEL1:15:014:40 12.871180BERCHEM (ANTWERPEN)
128.12562VERCRUYSSE Didier49BEL1:15:064:40 12.861188MORTSEL
129.18664STEYLAERTS Peter45BEL1:15:074:40 12.861190NIEL
130.15173KEERSMAEKERS Eric47BEL1:15:114:41 12.851199
131.5799MUSSELY Filip49BEL1:15:114:41 12.851201BAVIKHOVE
132.3734VERSCHUEREN Bart49BEL1:15:134:41 12.841207WUUSTWEZEL
133.924THYS Ludo48BEL1:15:304:42 12.791248GOOREIND (WUUSTWEZEL)
134.502BOLS Ludo47BEL1:15:304:42 12.791250ZANDHOVEN
135.18150DUBOIS Jean-Paul48BEL1:15:324:42 12.791256KONTICH
136.9118STRUYF Bruno48BEL1:15:334:42 12.781260EDEGEM
137.470HEIRMAN Marc45BEL1:15:344:42 12.781261DEURNE (ANTWERPEN)
138.14528DE GROOTE Davy47BEL1:15:344:42 12.781264WAREGEM
139.860MOORTHAMER Gaston49BEL1:15:384:42 12.771271BURCHT
140.2704VAN HEECKEREN Robert45BEL1:15:404:43 12.761279KAPELLEN (ANTW.)
141.812VAN LOOCK Peter47BEL1:15:414:43 12.761281HOBOKEN (ANTWERPEN)
142.8525VENNEKENS Luc46BEL1:15:424:43 12.761282GEEL
143.18856VAN ALBOOM Patrick46BEL1:15:444:43 12.751291GENTBRUGGE
144.4982PEETERS Luc49BEL1:15:444:43 12.751293ESSEN
145.18610DE BRUYNE Peter48BEL1:15:504:43 12.741316EDEGEM
146.334VERCRUYSSEN Daniel47BEL1:15:514:43 12.731319MORTSEL
147.176VAN HECKE Geert45BEL1:15:514:43 12.731321ANTWERPEN 5
148.643DE WINTER Peter46BEL1:15:544:43 12.721326DEURNE
149.1061PORRES Miguel47BEL1:15:574:44 12.721332ANTWERPEN 1
150.232VAN DE VREKEN Luc46BEL1:16:014:44 12.701343SCHELLE
151.7099GELDHOF Gerdy47BEL1:16:024:44 12.701347KAPELLEN
152.6209SPRUYT Frank48BEL1:16:044:44 12.701353BUGGENHOUT
153.7388VAN DEN AUDENAEREN Paul49BEL1:16:054:44 12.701354LINT
154.2296GOMMERS Johnny49BEL1:16:054:44 12.691355DEURNE
155.13496SOONTJENS Dirk46BEL1:16:124:45 12.681377WOMMELGEM
156.10742MELKEBEKE Frank47BEL1:16:144:45 12.671388MERELBEKE
157.13901TESSENS Luc49BEL1:16:194:45 12.651403KONTICH
158.13764VERMEIRSSEN Paul49BEL1:16:204:45 12.651406DE KLINGE
159.1277THOMAERE Luc49BEL1:16:204:45 12.651407SCHILDE
160.157STEIJAART Lucien48NLD1:16:204:45 12.651410HULST
161.3037SNEYERS Marc45BEL1:16:214:45 12.651413KONTICH
162.11711MORTIER Filip49BEL1:16:224:45 12.651419SINT-KRUIS (BRUGGE)
163.18923VERLINDEN Geert48BEL1:16:244:45 12.641427SINT-KATELIJNE-WAVER
164.8279VAN HOUDT Chris48BEL1:16:244:45 12.641428WESTERLO
165.1594COLOMBO Daniele48BEL1:16:254:45 12.641434WEZEMBEEK OPPEM
166.10830VALGAEREN Jozef48BEL1:16:264:45 12.641436RUMST
167.9229TERPSTRA Paul47NLD1:16:334:46 12.621470HAREN
168.10694REVIJN Johan45BEL1:16:344:46 12.611474WILRIJK (ANTWERPEN)
169.19280PEERLINGS Frank47BEL1:16:354:46 12.611475HOVE
170.458CEUPPENS Dirk49BEL1:16:384:46 12.601483WESTERLO
171.14430DILLEN Koen48BEL1:16:394:46 12.601484MOL
172.1464VAN HOUT Chris45BEL1:16:394:46 12.601486RIJKEVORSEL
173.13393KUYPERS Jan49BEL1:16:404:46 12.601489BORGERHOUT (ANTWERPEN)
174.3311ROELS Bruno46BEL1:16:404:46 12.601490TESSENDERLO
175.9042FLEURINCK Marc47BEL1:16:414:46 12.601491BRASSCHAAT
176.9781FREDERIX Ludo46BEL1:16:474:47 12.581519LOMMEL
177.4485VAN DE VONDER Greet47BEL1:16:474:47 12.581521BEERZEL
178.8523VAN LOY Patrick48BEL1:16:474:47 12.581522OLEN
179.11352VERBIEST Guy49BEL1:16:534:47 12.561545GEEL
180.12808DE GREYT Patrick46BEL1:16:554:47 12.561551KAPELLE O/D BOS
181.565VANDE WEIJER Erik48BEL1:16:574:47 12.551559VREMDE
182.10326SAINT GHISLAIN Gert46BEL1:16:594:47 12.551566MERKSEM (ANTWERPEN)
183.6836BUYTAERT Franky47BEL1:17:004:48 12.541568BAZEL
184.5440LETTAT Amar46BEL1:17:074:48 12.521582TEMSE
185.3764SCHURMANS Jo47BEL1:17:084:48 12.521585BAARLE-HERTOG
186.18144VAN DER PAS Jan49BEL1:17:144:48 12.501609BERCHEM (ANTWERPEN)
187.18683BERTOLO Stefan45BEL1:17:174:49 12.501618BONHEIDEN
188.9675VLEMINCKX Kris45BEL1:17:224:49 12.481628MERELBEKE
189.16442LUDIKHUYZE Danny47BEL1:17:234:49 12.481632BORGERHOUT (ANTWERPEN)
190.1003VANCOPPENOLLE Koen48BEL1:17:294:49 12.471651NIJLEN
191.6283DEKIMPE Joseph46BEL1:17:304:49 12.461656ANTWERPEN 1
192.2576DE WORTELAER Geert47BEL1:17:324:50 12.461663PELLENBERG
193.9047HALSBERGHE Boudewijn47BEL1:17:324:50 12.461665EDEGEM
194.13696SLACHMUYLDERS Jan47BEL1:17:354:50 12.451679LINT
195.264VAN RELEGHEM Alain46BEL1:17:374:50 12.441688WILLEBROEK
196.16873DIERCKX Gerald48BEL1:17:374:50 12.441689
197.13240RYCKX Tom45BEL1:17:394:50 12.441697BORGERHOUT (ANTWERPEN)
DNF: abandon; DSQ: disqualifié; Vitesse en km/h
ChronoRace - Electronic Timing - www.chronorace.be